Location: Beetenbrück
(52.8113°N, 9.5946°E)
Time: 22:03:07
(UTC+00:00)

SL-8 Rocket - Pass Details

Date: 14 April 2026
Orbit: 957 x 989 km, 82.9° (Epoch: 12 May)

Event Time Altitude Azimuth Distance (km) Brightness Sun altitude
Rises 18:57:17 0° 162° (SSE) 3,659 6.6 -6.2°
Reaches altitude 10° 18:59:54 10° 156° (SSE) 2,720 5.9 -6.6°
Maximum altitude 19:05:41 41° 88° (E) 1,390 4.5 -7.3°
Drops below altitude 10° 19:11:31 10° 21° (NNE) 2,755 6.5 -8.1°
Sets 19:14:10 0° 15° (NNE) 3,711 7.2 -8.5°
